Hourly Data Report for September 02, 2019

All times are specified in Local Standard Time (LST). Add 1 hour to adjust for Daylight Saving Time where and when it is observed.

EUREKA CLIMATE
NUNAVUT
Current Station Operator: ECCC - MSC

79°59'21.000" N
85°56'02.000" W
10.00 m
2401199
71613
NEK

Download Data

Hourly Data (September 2019)
Hourly Data Report for September 2, 2019
TIME Temp Definition
°C
Dew Point Definition
°C
Rel Hum Definition
%
Wind Dir Definition
10's deg

Wind Spd Definition
km/h
Visibility Definition
km
Stn Press Definition
kPa
Hmdx Definition


Wind Chill Definition


Weather Definition


00:00 1.0 -0.7 89 29 28   101.21     LegendNANA
01:00 0.9 -0.8 88 28 21   101.21     LegendNANA
02:00 1.0 -0.6 89 29 28   101.22     LegendNANA
03:00 0.8 -0.7 90 29 29   101.20     LegendNANA
04:00 1.0 -1.0 87 34 11   101.20     LegendNANA
05:00 1.0 -1.0 86 30 17   101.19     LegendNANA
06:00 1.0 -1.0 87 28 16   101.19     LegendNANA
07:00 0.7 -0.7 90 28 25   101.19     LegendNANA
08:00 0.9 -0.5 91 29 25   101.19     LegendNANA
09:00 1.1 -0.8 87 29 18   101.19     LegendNANA
10:00 1.3 -0.7 86 30 23   101.17     LegendNANA
11:00 1.5 -0.6 86 29 27   101.16     LegendNANA
12:00 2.3 -1.1 78 29 27   101.15     LegendNANA
13:00 1.8 -0.8 83 29 25   101.16     LegendNANA
14:00 1.4 -0.8 86 28 28   101.14     LegendNANA
15:00 1.7 -0.9 83 29 29   101.15     LegendNANA
16:00 2.1 -0.9 81 28 18   101.14     LegendNANA
17:00 1.3 -0.6 87 29 28   101.16     LegendNANA
18:00 1.7 -0.6 85 29 23   101.17     LegendNANA
19:00 1.6 -0.6 85 28 22   101.18     LegendNANA
20:00 1.2 -0.7 87 29 26   101.17     LegendNANA
21:00 1.2 -0.8 86 29 27   101.17     LegendNANA
22:00 1.0 -0.8 87 30 20   101.17     LegendNANA
23:00 1.2 -1.0 85 29 19   101.17     LegendNANA

Notes on Data Quality.

Legend

  • E = Estimated
  • M = Missing
  • NA = Not Available
Date modified: